map of QSF home
QSF - Airport
Location
City:  SÚtif, SÚtif, Algeria
Name:Ain Arnat Airport
Old (Alt.):SÚtif International, 8 Mai 45 Airport
ICAO:DAAS
IATA:QSF

Details
Type:Airport (Aerodrome, Airfield)
Use:Public/Civil, International (customs port of entry)
Latitude:36░10'43"N (36.178611)
Longitude:5░19'48"E (5.330000)
Elevation:3330 ft (1015 m)
Variation:1.56░E (WMM2015 magnetic declination)
0.10░ annual change
Runways:1
Longest:7874 × 148 ft (2400 × 45 m)

Time
Time Zone:UTC+1
Local Time:

Weather
METAR:DAAS 202200Z 06001KT CAVOK 14/11 Q1024
TAF:DAAS 201700Z 2018/2118 09010KT 9999 FEW026 SCT100 PROB40
TEMPO 2018/2021 FEW023TCU
BECMG 2010/2022 29008KT
TEMPO 2100/2109 2000 BR BKN010 PROB30
TEMPO 2102/2107 0500 FG
BECMG 2112/2115 30011KT PROB40
TEMPO 2112/2118 FEW026CB

Related Locations
Nearby:
Farthest:GIS: 12002 mi / 19315 km
Gisborne, GIS, NZ

Find:

   beyond  
but within

Other Information
Maps:
NOTAMs:
Links:
Sources:

  
  • flag of Algeria
  

Sectional Chart

Flight Planning
at skyvector.com

Satellite Image

Google Maps Satellite view

 

Copyright © 2004-2018 Karl L. Swartz. All rights reserved.
The Great Circle Mapper name and logo are trademarks of the Great Circle Mapper.
All other trademarks mentioned herein belong to their respective owners.
Please see credits for attibutions and further copyright information.

  Follow gcmap on Facebook Follow gcmap on Twitter Follow gcmap on Google+ GCmap on LinkedIn

hCard Microformat

Geo Microformat